Weather History for KBML - November, 2010

Change the Weather History Date:

Monday, November 15, 2010

  Actual Average Record
Temperature  
Mean Temperature 38 °F -  
Max Temperature 48 °F 38 °F 64 °F (2008)
Min Temperature 28 °F 21 °F 5 °F (1996)
Degree Days  
Heating Degree Days 27    
Moisture  
Dew Point 34 °F    
Average Humidity 85    
Maximum Humidity 96    
Minimum Humidity 68    
Precipitation  
Precipitation 0.00 in - - ()
Sea Level Pressure  
Sea Level Pressure 30.07 in    
Wind  
Wind Speed 2 mph (SSE)    
Max Wind Speed 7 mph    
Max Gust Speed -    
Visibility 9 miles    
Events      
Averages and records for this station are not official NWS values.
T = Trace of Precipitation, MM = Missing Value Source: NWS Daily Summary

Daily Weather History Graph

Daily Weather History Graph

Search for Another Location

Airport or City:

Trip Planner

Search our weather history database for the weather conditions in past years. The results will help you decide how hot, cold, wet, or windy it might be!

Date:

Astronomy

Nov. 15, 2010 Rise Set
Actual Time 6:41 AM EST 4:16 PM EST
Civil Twilight 6:09 AM EST 4:48 PM EST
Nautical Twilight 5:34 AM EST 5:23 PM EST
Astronomical Twilight 4:59 AM EST 5:58 PM EST
Moon 1:10 PM EST (11/15) 12:30 AM EST (11/15)
Length of Visible Light 10h 38m
Length of Day
9h 35m
Waxing Gibbous, 69% of the Moon is Illuminated
Nov 15
Waxing Gibbous
Nov 21
Full
Nov 28
Last Quarter
Dec 5
New
Dec 13
First Quarter

Hourly Weather History & Observations

Time (EST) Temp. Windchill Dew Point Humidity Pressure Visibility Wind Dir Wind Speed Gust Speed Precip Events Conditions
12:52 AM 30.0 °F - 28.9 °F 96% 30.09 in 5.0 mi Calm Calm - N/A   Clear
1:52 AM 30.0 °F - 28.9 °F 96% 30.09 in 8.0 mi Calm Calm - N/A   Clear
2:52 AM 30.9 °F 26.2 °F 30.0 °F 96% 30.08 in 10.0 mi NNW 4.6 mph - N/A   Clear
3:52 AM 28.9 °F - 28.0 °F 96% 30.09 in 9.0 mi Calm Calm - N/A   Clear
4:52 AM 30.0 °F - 28.0 °F 92% 30.09 in 8.0 mi Calm Calm - N/A   Clear
5:52 AM 30.9 °F - 28.9 °F 92% 30.08 in 9.0 mi Calm Calm - N/A   Clear
6:52 AM 30.9 °F - 30.0 °F 96% 30.08 in 8.0 mi Calm Calm - N/A   Clear
7:52 AM 32.0 °F 28.7 °F 30.9 °F 96% 30.09 in 9.0 mi WSW 3.5 mph - N/A   Scattered Clouds
8:52 AM 35.1 °F 31.0 °F 32.0 °F 89% 30.09 in 10.0 mi North 4.6 mph - N/A   Overcast
9:52 AM 37.9 °F - 34.0 °F 86% 30.10 in 10.0 mi Calm Calm - N/A   Mostly Cloudy
10:52 AM 42.1 °F - 36.0 °F 79% 30.09 in 10.0 mi Calm Calm - N/A   Mostly Cloudy
11:52 AM 45.0 °F - 36.0 °F 71% 30.06 in 10.0 mi Calm Calm - N/A   Mostly Cloudy
12:52 PM 46.9 °F - 37.0 °F 68% 30.04 in 10.0 mi Calm Calm - N/A   Mostly Cloudy
1:52 PM 48.0 °F - 37.9 °F 68% 30.04 in 10.0 mi SSW 4.6 mph - N/A   Scattered Clouds
2:31 PM 46.4 °F 45.2 °F 37.4 °F 71% 30.02 in 10.0 mi SSE 3.5 mph - N/A   Mostly Cloudy
2:52 PM 46.9 °F - 37.9 °F 71% 30.06 in 10.0 mi SSE 6.9 mph - N/A   Mostly Cloudy
3:18 PM 46.4 °F 42.9 °F 37.4 °F 71% 30.02 in 10.0 mi SSE 6.9 mph - N/A   Overcast
3:52 PM 46.0 °F 43.1 °F 37.9 °F 73% 30.07 in 10.0 mi SSE 5.8 mph - N/A   Overcast
4:01 PM 44.6 °F 40.7 °F 37.4 °F 76% 30.02 in 10.0 mi SE 6.9 mph - N/A   Overcast
4:52 PM 44.1 °F 42.5 °F 37.9 °F 79% 30.07 in 10.0 mi SSE 3.5 mph - N/A   Overcast
5:52 PM 41.0 °F - 37.0 °F 86% 30.08 in 10.0 mi Calm Calm - N/A   Mostly Cloudy
6:52 PM 39.0 °F - 37.0 °F 93% 30.09 in 10.0 mi Calm Calm - N/A   Overcast
7:52 PM 39.9 °F - 37.0 °F 89% 30.09 in 8.0 mi Calm Calm - N/A   Overcast
8:52 PM 37.0 °F - 35.1 °F 93% 30.09 in 8.0 mi Calm Calm - N/A   Overcast
9:52 PM 37.0 °F 34.5 °F 35.1 °F 93% 30.08 in 9.0 mi SE 3.5 mph - N/A   Overcast
10:52 PM 37.9 °F - 36.0 °F 93% 30.08 in 8.0 mi Calm Calm - N/A   Overcast
11:52 PM 37.9 °F - 36.0 °F 93% 30.07 in 7.0 mi Calm Calm - N/A   Overcast